Location: Kapla
(46.2483°N, 15.0094°E)
Time: 07:21:43
(UTC+00:00)

SL-8 Rocket - Pass Details

Date: 03 March 2021
Orbit: 957 x 990 km, 82.9° (Epoch: 19 April)

Event Time Altitude Azimuth Distance (km) Brightness Sun altitude
Rises 18:05:46 0° 168° (SSE) 3,669 6.8 -14.0°
Reaches altitude 10° 18:08:22 10° 163° (SSE) 2,721 6.1 -14.5°
Maximum altitude 18:14:17 48° 91° (E) 1,251 4.2 -15.5°
Drops below altitude 10° 18:20:12 10° 19° (NNE) 2,716 6.2 -16.5°
Sets 18:22:47 0° 14° (NNE) 3,663 7.0 -16.9°
